Tracking 19212 objects as of 17-Jul-2018
HD Live streaming from Space Station
objects crossing your sky now

MOLNIYA 1-75

Track MOLNIYA 1-75 now!
MOLNIYA 1-75 is classified as:


NORAD ID: 19807
Int'l Code: 1989-014A
Perigee: 1,875.1 km
Apogee: 38,567.1 km
Inclination: 63.9 °
Period: 719.3 minutes
Semi major axis: 26592 km
RCS: 12.6191 m2 (large)
Launch date: February 15, 1989
Source: Commonwealth of Independent States (former USSR) (CIS)
Launch site: TYURATAM MISSILE AND SPACE COMPLEX (TTMTR)
aabbcc
Your satellite tracking list
Your tracking list is empty




NASA's NSSDC Master Catalog

Two Line Element Set (TLE):
1 19807U 89014A   18195.77492243  .00000247  00000-0 -29828-1 0  9993
2 19807  63.8642  95.5354 6899038 275.3669  15.8714  2.00204200215338
Source of the keplerian elements: AFSPC